Location: Chagrin Falls Park
(41.4139°N, 81.3865°W)
Time: 07:01:26
(UTC+00:00)

X-37B - Pass Details

Date: 31 July 2021
Orbit: 381 x 393 km, 45.0° (Epoch: 29 August)

Event Time Altitude Azimuth Distance (km) Brightness Sun altitude
Exits shadow 09:04:21 17° 190° (S) 1,038 2.3 -12.8°
Maximum altitude 09:05:54 26° 147° (SSE) 799 2.1 -12.6°
Drops below altitude 10° 09:08:34 10° 88° (E) 1,396 4.2 -12.2°
Sets 09:10:50 0° 75° (ENE) 2,253 5.8 -11.9°
